Simultaneous Nadir Overpasses (SNOs) Predictions

Prediction of SNOs between LANDSAT-8 and NOAA-19 Satellite Orbit:

Table of predicted SNOs for the next 14.0 days since TLE Epoch: 2/20/2015
Index Date (LANDSAT-8) Time (LANDSAT-8) Lat,Lon (LANDSAT-8) SZA (LANDSAT-8 ) Date (NOAA-19) Time (NOAA-19) Lat,Lon (NOAA-19) SZA (NOAA-19 ) Distance(km) Time Diff (sec)
1 02/22/2015 05:43:12 72.84, 94.86 83.07 02/22/2015 05:42:32 72.83, 94.91 83.06 2.28 40
2 02/22/2015 06:32:41 -72.78, -97.63 97.01 02/22/2015 06:33:26 -72.75, -97.65 97.04 3.54 45
3 02/24/2015 10:27:21 73.27, 24.64 82.69 02/24/2015 10:26:12 73.33, 22.93 82.78 55.02 69
4 02/24/2015 11:16:57 -72.84,-168.59 97.76 02/24/2015 11:16:58 -72.84,-168.68 97.76 3.24 1
5 02/26/2015 16:01:13 -72.89, 120.44 98.52 02/26/2015 16:00:29 -72.88, 120.37 98.53 2.36 44
6 02/26/2015 16:50:41 72.75, -72.20 81.32 02/26/2015 16:51:33 72.76, -72.13 81.33 2.69 52
7 02/28/2015 20:45:20 -73.40, 50.39 98.85 02/28/2015 20:44:11 -73.48, 48.18 98.74 70.61 69
8 02/28/2015 21:34:56 72.84,-143.10 80.58 02/28/2015 21:35:04 72.84,-143.14 80.59 1.21 8
9 02/28/2015 22:24:39 -72.03, 23.05 100.22 02/28/2015 22:25:44 -71.99, 25.87 100.30 97.05 65
10 03/03/2015 02:19:12 72.86, 145.87 79.77 03/03/2015 02:18:34 72.87, 145.94 79.79 2.57 38
11 03/03/2015 03:08:40 -72.80, -46.61 100.31 03/03/2015 03:09:29 -72.80, -46.65 100.31 1.17 49
12 03/05/2015 07:03:21 73.19, 75.45 79.25 03/05/2015 07:02:10 73.27, 74.21 79.35 40.72 71
13 03/05/2015 07:52:55 -72.87,-117.55 101.09 03/05/2015 07:53:00 -72.87,-117.64 101.08 2.74 5




NCC Satellite Simultaneous Nadir Overpasses (SNOs) Prediction Service
